Time,TemperatureF,DewpointF,PressureIn,WindDirection,WindDirectionDegrees,WindSpeedMPH,WindSpeedGustMPH,Humidity,HourlyPrecipIn,Conditions,Clouds,dailyrainin,SoftwareType,DateUTC
2013-04-19 00:00:00,40.9,31.5,30.18,NNW,333,3.0,4.0,69,0.00,,,0.47,Wunderground v.1.15,2013-04-19 05:00:00,
2013-04-19 00:04:00,40.8,31.0,30.18,NW,325,3.0,4.0,69,0.00,,,0.00,weatherlink.com 1.10,2013-04-19 05:04:00,
2013-04-19 00:10:00,40.7,31.3,30.18,NW,324,3.0,3.0,69,0.00,,,0.00,Wunderground v.1.15,2013-04-19 05:10:00,
2013-04-19 00:19:00,40.6,32.0,30.18,NW,316,2.0,4.0,70,0.00,,,0.00,weatherlink.com 1.10,2013-04-19 05:19:00,
2013-04-19 00:25:00,40.6,31.6,30.17,NW,317,2.0,4.0,70,0.00,,,0.00,Wunderground v.1.15,2013-04-19 05:25:00,
2013-04-19 00:34:00,40.6,32.0,30.18,NW,317,3.0,6.0,70,0.00,,,0.00,weatherlink.com 1.10,2013-04-19 05:34:00,
2013-04-19 00:40:00,40.4,31.4,30.18,NW,305,3.0,3.0,70,0.00,,,0.00,Wunderground v.1.15,2013-04-19 05:40:00,
2013-04-19 00:45:00,40.2,31.5,30.18,NNW,331,3.0,3.0,71,0.00,,,0.00,Wunderground v.1.15,2013-04-19 05:45:00,
2013-04-19 00:49:00,40.1,31.0,30.18,NW,326,5.0,6.0,71,0.00,,,0.00,weatherlink.com 1.10,2013-04-19 05:49:00,
2013-04-19 00:55:00,39.9,31.3,30.18,NNW,327,4.0,5.0,71,0.00,,,0.00,Wunderground v.1.15,2013-04-19 05:55:00,
2013-04-19 01:00:00,39.8,31.5,30.18,NW,321,4.0,4.0,72,0.00,,,0.00,Wunderground v.1.15,2013-04-19 06:00:00,
2013-04-19 01:04:00,39.8,31.0,30.18,NW,321,6.0,7.0,72,0.00,,,0.00,weatherlink.com 1.10,2013-04-19 06:04:00,
2013-04-19 01:10:00,39.8,31.5,30.18,NW,324,4.0,4.0,72,0.00,,,0.00,Wunderground v.1.15,2013-04-19 06:10:00,
2013-04-19 01:19:00,39.7,31.0,30.19,NW,310,3.0,8.0,72,0.00,,,0.00,weatherlink.com 1.10,2013-04-19 06:19:00,
2013-04-19 01:25:00,39.8,31.5,30.19,NW,326,4.0,5.0,72,0.00,,,0.00,Wunderground v.1.15,2013-04-19 06:25:00,
2013-04-19 01:34:00,39.8,31.0,30.19,NW,311,3.0,7.0,72,0.00,,,0.00,weatherlink.com 1.10,2013-04-19 06:34:00,
2013-04-19 01:40:00,39.6,31.3,30.19,WNW,303,3.0,5.0,72,0.00,,,0.00,Wunderground v.1.15,2013-04-19 06:40:00,
2013-04-19 01:45:00,39.3,31.0,30.19,NW,319,4.0,5.0,72,0.00,,,0.00,Wunderground v.1.15,2013-04-19 06:45:00,
2013-04-19 01:49:00,39.2,31.0,30.19,NW,317,3.0,9.0,72,0.00,,,0.00,weatherlink.com 1.10,2013-04-19 06:49:00,
2013-04-19 01:55:00,39.1,31.2,30.19,NNW,327,4.0,5.0,73,0.00,,,0.00,Wunderground v.1.15,2013-04-19 06:55:00,
2013-04-19 02:00:00,39.0,31.1,30.19,NW,313,3.0,3.0,73,0.00,,,0.00,Wunderground v.1.15,2013-04-19 07:00:00,
2013-04-19 02:05:00,38.9,31.0,30.19,NW,317,3.0,5.0,73,0.00,,,0.00,Wunderground v.1.15,2013-04-19 07:05:00,
2013-04-19 02:06:00,38.9,31.0,30.19,NW,321,4.0,6.0,73,0.00,,,0.00,weatherlink.com 1.10,2013-04-19 07:06:00,
2013-04-19 02:15:00,38.8,30.5,30.19,NNW,344,3.0,4.0,72,0.00,,,0.00,Wunderground v.1.15,2013-04-19 07:15:00,
2013-04-19 02:20:00,38.8,30.5,30.18,NW,319,4.0,4.0,72,0.00,,,0.00,Wunderground v.1.15,2013-04-19 07:20:00,
2013-04-19 02:21:00,38.8,30.0,30.18,NW,319,3.0,7.0,72,0.00,,,0.00,weatherlink.com 1.10,2013-04-19 07:21:00,
2013-04-19 02:30:00,38.8,30.2,30.18,NNW,343,4.0,5.0,71,0.00,,,0.00,Wunderground v.1.15,2013-04-19 07:30:00,
2013-04-19 02:35:00,38.8,30.2,30.18,NNW,340,4.0,5.0,71,0.00,,,0.00,Wunderground v.1.15,2013-04-19 07:35:00,
2013-04-19 02:36:00,38.8,30.0,30.18,NW,317,4.0,7.0,71,0.00,,,0.00,weatherlink.com 1.10,2013-04-19 07:36:00,
2013-04-19 02:45:00,38.8,29.8,30.18,NW,317,5.0,5.0,70,0.00,,,0.00,Wunderground v.1.15,2013-04-19 07:45:00,
2013-04-19 02:50:00,38.8,29.8,30.18,NNW,341,5.0,5.0,70,0.00,,,0.00,Wunderground v.1.15,2013-04-19 07:50:00,
2013-04-19 02:51:00,38.8,30.0,30.18,NNW,330,4.0,8.0,70,0.00,,,0.00,weatherlink.com 1.10,2013-04-19 07:51:00,
2013-04-19 03:00:00,38.6,29.7,30.18,NW,306,3.0,3.0,70,0.00,,,0.00,Wunderground v.1.15,2013-04-19 08:00:00,
2013-04-19 03:05:00,38.4,29.8,30.18,NW,311,3.0,3.0,71,0.00,,,0.00,Wunderground v.1.15,2013-04-19 08:05:00,
2013-04-19 03:06:00,38.4,30.0,30.18,NW,306,4.0,6.0,71,0.00,,,0.00,weatherlink.com 1.10,2013-04-19 08:06:00,
2013-04-19 03:15:00,38.0,30.1,30.18,NW,308,4.0,5.0,73,0.00,,,0.00,Wunderground v.1.15,2013-04-19 08:15:00,
2013-04-19 03:20:00,37.8,29.9,30.18,NW,312,4.0,4.0,73,0.00,,,0.00,Wunderground v.1.15,2013-04-19 08:20:00,
2013-04-19 03:21:00,37.8,30.0,30.18,NW,312,3.0,8.0,73,0.00,,,0.00,weatherlink.com 1.10,2013-04-19 08:21:00,
2013-04-19 03:25:00,37.6,30.1,30.19,WNW,298,4.0,5.0,74,0.00,,,0.00,Wunderground v.1.15,2013-04-19 08:25:00,
2013-04-19 03:30:00,37.5,30.0,30.19,WNW,300,4.0,4.0,74,0.00,,,0.00,Wunderground v.1.15,2013-04-19 08:30:00,
2013-04-19 03:35:00,37.4,29.9,30.19,NW,313,4.0,7.0,74,0.00,,,0.00,Wunderground v.1.15,2013-04-19 08:35:00,
2013-04-19 03:36:00,37.4,30.0,30.19,NW,309,5.0,8.0,74,0.00,,,0.00,weatherlink.com 1.10,2013-04-19 08:36:00,
2013-04-19 03:40:00,37.4,29.9,30.18,NW,308,5.0,5.0,74,0.00,,,0.00,Wunderground v.1.15,2013-04-19 08:40:00,
2013-04-19 03:45:00,37.3,29.8,30.19,NW,312,4.0,6.0,74,0.00,,,0.00,Wunderground v.1.15,2013-04-19 08:45:00,
2013-04-19 03:50:00,37.2,29.7,30.18,NW,313,4.0,4.0,74,0.00,,,0.00,Wunderground v.1.15,2013-04-19 08:50:00,
2013-04-19 03:51:00,37.2,29.0,30.19,NNW,329,3.0,7.0,73,0.00,,,0.00,weatherlink.com 1.10,2013-04-19 08:51:00,
2013-04-19 04:00:00,37.0,29.5,30.19,NNW,327,3.0,3.0,74,0.00,,,0.00,Wunderground v.1.15,2013-04-19 09:00:00,
2013-04-19 04:05:00,37.0,29.1,30.19,NW,318,4.0,4.0,73,0.00,,,0.00,Wunderground v.1.15,2013-04-19 09:05:00,
2013-04-19 04:06:00,36.9,29.0,30.19,NW,317,4.0,7.0,73,0.00,,,0.00,weatherlink.com 1.10,2013-04-19 09:06:00,
2013-04-19 04:15:00,36.9,29.1,30.19,NNW,329,4.0,4.0,73,0.00,,,0.00,Wunderground v.1.15,2013-04-19 09:15:00,
2013-04-19 04:21:00,37.0,29.0,30.19,NW,319,4.0,8.0,72,0.00,,,0.00,weatherlink.com 1.10,2013-04-19 09:21:00,
2013-04-19 04:30:00,37.1,28.2,30.20,NW,308,4.0,4.0,70,0.00,,,0.00,Wunderground v.1.15,2013-04-19 09:30:00,
2013-04-19 04:35:00,37.2,28.3,30.20,NNW,333,4.0,6.0,70,0.00,,,0.00,Wunderground v.1.15,2013-04-19 09:35:00,
2013-04-19 04:36:00,37.3,28.0,30.20,NW,304,8.0,9.0,70,0.00,,,0.00,weatherlink.com 1.10,2013-04-19 09:36:00,
2013-04-19 04:40:00,37.3,28.1,30.20,NW,307,4.0,4.0,69,0.00,,,0.00,Wunderground v.1.15,2013-04-19 09:40:00,
2013-04-19 04:50:00,37.3,27.7,30.20,NW,315,5.0,5.0,68,0.00,,,0.00,Wunderground v.1.15,2013-04-19 09:50:00,
2013-04-19 04:51:00,37.3,28.0,30.20,NW,316,9.0,10.0,68,0.00,,,0.00,weatherlink.com 1.10,2013-04-19 09:51:00,
2013-04-19 05:00:00,37.2,27.6,30.20,NW,324,5.0,6.0,68,0.00,,,0.00,Wunderground v.1.15,2013-04-19 10:00:00,
2013-04-19 05:06:00,37.3,28.0,30.21,NW,326,4.0,8.0,68,0.00,,,0.00,weatherlink.com 1.10,2013-04-19 10:06:00,
2013-04-19 05:10:00,37.4,27.8,30.21,WNW,302,5.0,5.0,68,0.00,,,0.00,Wunderground v.1.15,2013-04-19 10:10:00,
2013-04-19 05:20:00,37.5,27.5,30.21,NW,310,4.0,6.0,67,0.00,,,0.00,Wunderground v.1.15,2013-04-19 10:20:00,
2013-04-19 05:22:00,37.5,27.0,30.21,NW,322,5.0,9.0,67,0.00,,,0.00,weatherlink.com 1.10,2013-04-19 10:22:00,
2013-04-19 05:30:00,37.2,27.6,30.22,NW,306,5.0,6.0,68,0.00,,,0.00,Wunderground v.1.15,2013-04-19 10:30:00,
2013-04-19 05:37:00,37.0,27.0,30.22,NW,306,5.0,9.0,68,0.00,,,0.00,weatherlink.com 1.10,2013-04-19 10:37:00,
2013-04-19 05:45:00,36.8,27.6,30.23,NW,318,5.0,8.0,69,0.00,,,0.00,Wunderground v.1.15,2013-04-19 10:45:00,
2013-04-19 05:52:00,36.7,27.0,30.23,NW,322,6.0,10.0,69,0.00,,,0.00,weatherlink.com 1.10,2013-04-19 10:52:00,
2013-04-19 06:00:00,36.6,27.4,30.23,WNW,301,5.0,8.0,69,0.00,,,0.00,Wunderground v.1.15,2013-04-19 11:00:00,
2013-04-19 06:05:00,36.7,27.5,30.23,WNW,294,6.0,8.0,69,0.00,,,0.00,Wunderground v.1.15,2013-04-19 11:05:00,
2013-04-19 06:07:00,36.7,27.0,30.24,NW,324,2.0,12.0,69,0.00,,,0.00,weatherlink.com 1.10,2013-04-19 11:07:00,
2013-04-19 06:15:00,36.8,27.2,30.24,NW,322,5.0,7.0,68,0.00,,,0.00,Wunderground v.1.15,2013-04-19 11:15:00,
2013-04-19 06:20:00,36.8,27.2,30.24,NW,323,6.0,6.0,68,0.00,,,0.00,Wunderground v.1.15,2013-04-19 11:20:00,
2013-04-19 06:22:00,36.8,27.0,30.24,NW,323,7.0,10.0,68,0.00,,,0.00,weatherlink.com 1.10,2013-04-19 11:22:00,
2013-04-19 06:30:00,36.9,27.3,30.25,NW,305,4.0,4.0,68,0.00,,,0.00,Wunderground v.1.15,2013-04-19 11:30:00,
2013-04-19 06:35:00,36.9,27.3,30.25,WNW,294,4.0,8.0,68,0.00,,,0.00,Wunderground v.1.15,2013-04-19 11:35:00,
2013-04-19 06:37:00,36.9,27.0,30.25,NW,323,4.0,9.0,68,0.00,,,0.00,weatherlink.com 1.10,2013-04-19 11:37:00,
2013-04-19 06:45:00,36.8,27.2,30.25,NNW,340,4.0,6.0,68,0.00,,,0.00,Wunderground v.1.15,2013-04-19 11:45:00,
2013-04-19 06:50:00,36.7,27.5,30.25,NNW,329,4.0,4.0,69,0.00,,,0.00,Wunderground v.1.15,2013-04-19 11:50:00,
2013-04-19 06:52:00,36.7,27.0,30.25,WNW,303,3.0,10.0,69,0.00,,,0.00,weatherlink.com 1.10,2013-04-19 11:52:00,
2013-04-19 07:00:00,36.4,27.2,30.25,West,280,5.0,5.0,69,0.00,,,0.00,Wunderground v.1.15,2013-04-19 12:00:00,
2013-04-19 07:09:00,36.2,27.0,30.25,NNW,333,6.0,7.0,70,0.00,,,0.00,weatherlink.com 1.10,2013-04-19 12:09:00,
2013-04-19 07:10:00,36.2,27.4,30.25,WNW,303,4.0,5.0,70,0.00,,,0.00,Wunderground v.1.15,2013-04-19 12:10:00,
2013-04-19 07:20:00,36.3,27.4,30.25,NW,315,4.0,5.0,70,0.00,,,0.00,Wunderground v.1.15,2013-04-19 12:20:00,
2013-04-19 07:23:00,36.3,27.0,30.26,WNW,294,4.0,8.0,70,0.00,,,0.00,weatherlink.com 1.10,2013-04-19 12:23:00,
2013-04-19 07:30:00,36.3,27.4,30.26,NW,317,4.0,4.0,70,0.00,,,0.00,Wunderground v.1.15,2013-04-19 12:30:00,
2013-04-19 07:35:00,36.4,27.5,30.27,WNW,300,3.0,5.0,70,0.00,,,0.00,Wunderground v.1.15,2013-04-19 12:35:00,
2013-04-19 07:39:00,36.6,28.0,30.27,NW,311,4.0,8.0,70,0.00,,,0.00,weatherlink.com 1.10,2013-04-19 12:39:00,
2013-04-19 07:40:00,36.6,27.7,30.27,NW,315,4.0,4.0,70,0.00,,,0.00,Wunderground v.1.15,2013-04-19 12:40:00,
2013-04-19 07:50:00,37.0,28.1,30.28,NW,305,8.0,8.0,70,0.00,,,0.00,Wunderground v.1.15,2013-04-19 12:50:00,
2013-04-19 07:54:00,37.1,28.0,30.28,NW,318,9.0,9.0,69,0.00,,,0.00,weatherlink.com 1.10,2013-04-19 12:54:00,
2013-04-19 08:00:00,37.3,28.1,30.28,West,281,5.0,5.0,69,0.00,,,0.00,Wunderground v.1.15,2013-04-19 13:00:00,
2013-04-19 08:05:00,37.3,28.1,30.28,WNW,303,5.0,5.0,69,0.00,,,0.00,Wunderground v.1.15,2013-04-19 13:05:00,
2013-04-19 08:09:00,37.6,28.0,30.28,WNW,302,5.0,14.0,69,0.00,,,0.00,weatherlink.com 1.10,2013-04-19 13:09:00,
2013-04-19 08:10:00,37.7,28.4,30.28,NW,326,4.0,4.0,69,0.00,,,0.00,Wunderground v.1.15,2013-04-19 13:10:00,
2013-04-19 08:20:00,37.8,28.5,30.28,NW,313,6.0,6.0,69,0.00,,,0.00,Wunderground v.1.15,2013-04-19 13:20:00,
2013-04-19 08:24:00,38.0,29.0,30.28,NNW,336,4.0,11.0,69,0.00,,,0.00,weatherlink.com 1.10,2013-04-19 13:24:00,
2013-04-19 08:30:00,38.4,28.8,30.28,NW,311,5.0,5.0,68,0.00,,,0.00,Wunderground v.1.15,2013-04-19 13:30:00,
2013-04-19 08:35:00,38.8,28.8,30.28,NW,305,5.0,6.0,67,0.00,,,0.00,Wunderground v.1.15,2013-04-19 13:35:00,
2013-04-19 08:39:00,39.2,29.0,30.29,NW,321,8.0,11.0,66,0.00,,,0.00,weatherlink.com 1.10,2013-04-19 13:39:00,
2013-04-19 08:45:00,39.8,27.4,30.28,NNW,327,7.0,8.0,61,0.00,,,0.00,Wunderground v.1.15,2013-04-19 13:45:00,
2013-04-19 08:50:00,40.1,27.3,30.29,NW,318,9.0,10.0,60,0.00,,,0.00,Wunderground v.1.15,2013-04-19 13:50:00,
2013-04-19 08:54:00,40.2,27.0,30.29,NW,325,8.0,15.0,59,0.00,,,0.00,weatherlink.com 1.10,2013-04-19 13:54:00,
2013-04-19 09:00:00,40.7,27.1,30.29,North,355,8.0,8.0,58,0.00,,,0.00,Wunderground v.1.15,2013-04-19 14:00:00,
2013-04-19 09:05:00,41.2,27.5,30.28,NNW,327,6.0,8.0,58,0.00,,,0.00,Wunderground v.1.15,2013-04-19 14:05:00,
2013-04-19 09:09:00,41.3,27.0,30.29,NW,320,10.0,12.0,57,0.00,,,0.00,weatherlink.com 1.10,2013-04-19 14:09:00,
2013-04-19 09:15:00,41.7,26.7,30.28,NW,317,7.0,11.0,55,0.00,,,0.00,Wunderground v.1.15,2013-04-19 14:15:00,
2013-04-19 09:24:00,42.2,26.0,30.28,NW,326,4.0,15.0,54,0.00,,,0.00,weatherlink.com 1.10,2013-04-19 14:24:00,
2013-04-19 09:30:00,42.6,27.1,30.28,NW,317,8.0,12.0,54,0.00,,,0.00,Wunderground v.1.15,2013-04-19 14:30:00,
2013-04-19 09:35:00,42.7,26.7,30.29,NW,326,8.0,12.0,53,0.00,,,0.00,Wunderground v.1.15,2013-04-19 14:35:00,
2013-04-19 09:39:00,43.0,26.0,30.28,WNW,303,12.0,15.0,52,0.00,,,0.00,weatherlink.com 1.10,2013-04-19 14:39:00,
2013-04-19 09:45:00,43.3,25.9,30.29,NNW,330,9.0,10.0,50,0.00,,,0.00,Wunderground v.1.15,2013-04-19 14:45:00,
2013-04-19 09:50:00,43.7,26.7,30.29,NNW,329,9.0,10.0,51,0.00,,,0.00,Wunderground v.1.15,2013-04-19 14:50:00,
2013-04-19 09:54:00,44.2,26.0,30.29,NW,323,4.0,14.0,49,0.00,,,0.00,weatherlink.com 1.10,2013-04-19 14:54:00,
2013-04-19 10:00:00,45.0,26.5,30.29,NNW,336,8.0,8.0,48,0.00,,,0.00,Wunderground v.1.15,2013-04-19 15:00:00,
2013-04-19 10:09:00,45.6,25.0,30.28,NW,321,8.0,16.0,45,0.00,,,0.00,weatherlink.com 1.10,2013-04-19 15:09:00,
2013-04-19 10:15:00,45.4,25.8,30.28,NW,324,8.0,8.0,46,0.00,,,0.00,Wunderground v.1.15,2013-04-19 15:15:00,
2013-04-19 10:20:00,45.4,26.3,30.28,WNW,292,8.0,12.0,47,0.00,,,0.00,Wunderground v.1.15,2013-04-19 15:20:00,
2013-04-19 10:24:00,45.7,26.0,30.28,NW,320,6.0,13.0,46,0.00,,,0.00,weatherlink.com 1.10,2013-04-19 15:24:00,
2013-04-19 10:30:00,46.3,26.6,30.28,NNW,333,7.0,8.0,46,0.00,,,0.00,Wunderground v.1.15,2013-04-19 15:30:00,
2013-04-19 10:35:00,46.4,25.1,30.28,North,350,9.0,19.0,43,0.00,,,0.00,Wunderground v.1.15,2013-04-19 15:35:00,
2013-04-19 10:39:00,46.8,24.0,30.29,NNW,330,6.0,20.0,41,0.00,,,0.00,weatherlink.com 1.10,2013-04-19 15:39:00,
2013-04-19 10:45:00,47.2,24.7,30.29,NW,321,11.0,11.0,41,0.00,,,0.00,Wunderground v.1.15,2013-04-19 15:45:00,
2013-04-19 10:50:00,47.7,24.5,30.29,NNW,341,10.0,10.0,40,0.00,,,0.00,Wunderground v.1.15,2013-04-19 15:50:00,
2013-04-19 10:54:00,48.4,24.0,30.29,NNW,346,13.0,18.0,39,0.00,,,0.00,weatherlink.com 1.10,2013-04-19 15:54:00,
2013-04-19 11:00:00,48.5,24.0,30.29,North,355,8.0,14.0,38,0.00,,,0.00,Wunderground v.1.15,2013-04-19 16:00:00,
2013-04-19 11:05:00,48.2,23.7,30.29,NW,321,9.0,14.0,38,0.00,,,0.00,Wunderground v.1.15,2013-04-19 16:05:00,
2013-04-19 11:09:00,47.9,23.0,30.29,NW,323,9.0,14.0,38,0.00,,,0.00,weatherlink.com 1.10,2013-04-19 16:09:00,
2013-04-19 11:15:00,48.3,23.8,30.29,NW,321,10.0,16.0,38,0.00,,,0.00,Wunderground v.1.15,2013-04-19 16:15:00,
2013-04-19 11:20:00,48.8,23.6,30.29,NW,306,9.0,9.0,37,0.00,,,0.00,Wunderground v.1.15,2013-04-19 16:20:00,
2013-04-19 11:26:00,48.6,25.0,30.28,NW,312,5.0,16.0,40,0.00,,,0.00,weatherlink.com 1.10,2013-04-19 16:26:00,
2013-04-19 11:35:00,49.7,21.7,30.29,NW,321,8.0,8.0,33,0.00,,,0.00,Wunderground v.1.15,2013-04-19 16:35:00,
2013-04-19 11:40:00,49.8,21.8,30.29,NNW,345,10.0,10.0,33,0.00,,,0.00,Wunderground v.1.15,2013-04-19 16:40:00,
2013-04-19 11:41:00,49.8,22.0,30.29,NNE,15,9.0,20.0,33,0.00,,,0.00,weatherlink.com 1.10,2013-04-19 16:41:00,
2013-04-19 11:50:00,50.4,23.1,30.28,NW,325,10.0,12.0,34,0.00,,,0.00,Wunderground v.1.15,2013-04-19 16:50:00,
2013-04-19 11:55:00,50.5,23.1,30.28,NW,322,8.0,12.0,34,0.00,,,0.00,Wunderground v.1.15,2013-04-19 16:55:00,
2013-04-19 11:56:00,50.5,23.0,30.28,NNW,344,4.0,18.0,34,0.00,,,0.00,weatherlink.com 1.10,2013-04-19 16:56:00,
2013-04-19 12:05:00,50.8,22.7,30.28,NW,323,8.0,11.0,33,0.00,,,0.00,Wunderground v.1.15,2013-04-19 17:05:00,
2013-04-19 12:11:00,51.4,22.0,30.28,NNW,336,7.0,15.0,31,0.00,,,0.00,weatherlink.com 1.10,2013-04-19 17:11:00,
2013-04-19 12:20:00,51.7,22.8,30.27,NW,311,9.0,13.0,32,0.00,,,0.00,Wunderground v.1.15,2013-04-19 17:20:00,
2013-04-19 12:25:00,51.9,22.9,30.27,North,360,8.0,13.0,32,0.00,,,0.00,Wunderground v.1.15,2013-04-19 17:25:00,
2013-04-19 12:26:00,52.1,22.0,30.27,North,360,5.0,15.0,31,0.00,,,0.00,weatherlink.com 1.10,2013-04-19 17:26:00,
2013-04-19 12:35:00,52.4,21.0,30.27,NNW,328,10.0,16.0,29,0.00,,,0.00,Wunderground v.1.15,2013-04-19 17:35:00,
2013-04-19 12:40:00,52.7,22.1,30.27,North,360,9.0,9.0,30,0.00,,,0.00,Wunderground v.1.15,2013-04-19 17:40:00,
2013-04-19 12:41:00,52.7,22.0,30.27,NNW,334,9.0,14.0,30,0.00,,,0.00,weatherlink.com 1.10,2013-04-19 17:41:00,
2013-04-19 12:50:00,53.0,20.7,30.26,NNW,332,8.0,15.0,28,0.00,,,0.00,Wunderground v.1.15,2013-04-19 17:50:00,
2013-04-19 12:56:00,53.1,21.0,30.26,NW,321,6.0,15.0,29,0.00,,,0.00,weatherlink.com 1.10,2013-04-19 17:56:00,
2013-04-19 13:05:00,53.3,21.0,30.26,NW,326,8.0,11.0,28,0.00,,,0.00,Wunderground v.1.15,2013-04-19 18:05:00,
2013-04-19 13:10:00,54.4,21.9,30.25,NW,308,8.0,10.0,28,0.00,,,0.00,Wunderground v.1.15,2013-04-19 18:10:00,
2013-04-19 13:11:00,54.3,21.0,30.25,NW,321,13.0,15.0,27,0.00,,,0.00,weatherlink.com 1.10,2013-04-19 18:11:00,
2013-04-19 13:20:00,53.9,21.5,30.25,NW,308,10.0,10.0,28,0.00,,,0.00,Wunderground v.1.15,2013-04-19 18:20:00,
2013-04-19 13:25:00,54.5,22.0,30.25,NNW,327,9.0,10.0,28,0.00,,,0.00,Wunderground v.1.15,2013-04-19 18:25:00,
2013-04-19 13:26:00,54.6,23.0,30.25,NNE,32,6.0,16.0,29,0.00,,,0.00,weatherlink.com 1.10,2013-04-19 18:26:00,
2013-04-19 13:35:00,54.8,22.3,30.24,North,349,8.0,9.0,28,0.00,,,0.00,Wunderground v.1.15,2013-04-19 18:35:00,
2013-04-19 13:42:00,55.6,23.0,30.23,North,360,4.0,17.0,28,0.00,,,0.00,weatherlink.com 1.10,2013-04-19 18:42:00,
2013-04-19 13:50:00,55.6,23.0,30.23,NNW,346,6.0,6.0,28,0.00,,,0.00,Wunderground v.1.15,2013-04-19 18:50:00,
2013-04-19 14:05:00,56.8,24.0,30.23,NW,320,11.0,13.0,28,0.00,,,0.00,weatherlink.com 1.10,2013-04-19 19:05:00,
2013-04-19 14:12:00,57.0,24.0,30.22,NW,325,11.0,16.0,28,0.00,,,0.00,weatherlink.com 1.10,2013-04-19 19:12:00,
2013-04-19 14:20:00,57.1,25.1,30.22,NW,305,8.0,12.0,29,0.00,,,0.00,Wunderground v.1.15,2013-04-19 19:20:00,
2013-04-19 14:25:00,56.8,24.0,30.22,NNW,331,8.0,12.0,28,0.00,,,0.00,Wunderground v.1.15,2013-04-19 19:25:00,
2013-04-19 14:27:00,56.9,24.0,30.22,WNW,291,8.0,16.0,28,0.00,,,0.00,weatherlink.com 1.10,2013-04-19 19:27:00,
2013-04-19 14:35:00,56.9,24.1,30.22,North,355,10.0,10.0,28,0.00,,,0.00,Wunderground v.1.15,2013-04-19 19:35:00,
2013-04-19 14:40:00,57.3,24.4,30.21,WNW,296,9.0,9.0,28,0.00,,,0.00,Wunderground v.1.15,2013-04-19 19:40:00,
2013-04-19 14:42:00,57.5,24.0,30.21,West,281,3.0,14.0,28,0.00,,,0.00,weatherlink.com 1.10,2013-04-19 19:42:00,
2013-04-19 14:45:00,57.8,24.9,30.22,NW,324,7.0,9.0,28,0.00,,,0.00,Wunderground v.1.15,2013-04-19 19:45:00,
2013-04-19 14:55:00,58.6,25.6,30.21,WNW,299,6.0,8.0,28,0.00,,,0.00,Wunderground v.1.15,2013-04-19 19:55:00,
2013-04-19 14:57:00,58.5,24.0,30.21,NNW,331,12.0,18.0,27,0.00,,,0.00,weatherlink.com 1.10,2013-04-19 19:57:00,
2013-04-19 15:05:00,59.0,25.0,30.21,NNW,343,7.0,10.0,27,0.00,,,0.00,Wunderground v.1.15,2013-04-19 20:05:00,
2013-04-19 15:10:00,59.4,25.4,30.20,NW,326,6.0,6.0,27,0.00,,,0.00,Wunderground v.1.15,2013-04-19 20:10:00,
2013-04-19 15:12:00,59.2,25.0,30.20,WNW,303,3.0,12.0,27,0.00,,,0.00,weatherlink.com 1.10,2013-04-19 20:12:00,
2013-04-19 15:15:00,59.0,25.9,30.20,WNW,298,6.0,6.0,28,0.00,,,0.00,Wunderground v.1.15,2013-04-19 20:15:00,
2013-04-19 15:20:00,58.8,23.9,30.20,NNW,338,7.0,7.0,26,0.00,,,0.00,Wunderground v.1.15,2013-04-19 20:20:00,
2013-04-19 15:25:00,59.3,25.3,30.20,NW,317,8.0,8.0,27,0.00,,,0.00,Wunderground v.1.15,2013-04-19 20:25:00,
2013-04-19 15:27:00,59.3,25.0,30.20,SW,229,2.0,15.0,27,0.00,,,0.00,weatherlink.com 1.10,2013-04-19 20:27:00,
2013-04-19 15:30:00,59.6,25.5,30.19,NW,319,5.0,5.0,27,0.00,,,0.00,Wunderground v.1.15,2013-04-19 20:30:00,
2013-04-19 15:40:00,60.3,25.2,30.19,NW,326,5.0,8.0,26,0.00,,,0.00,Wunderground v.1.15,2013-04-19 20:40:00,
2013-04-19 15:42:00,60.3,26.0,30.19,NNW,328,5.0,11.0,27,0.00,,,0.00,weatherlink.com 1.10,2013-04-19 20:42:00,
2013-04-19 15:50:00,60.5,25.4,30.19,NNW,338,7.0,7.0,26,0.00,,,0.00,Wunderground v.1.15,2013-04-19 20:50:00,
2013-04-19 15:55:00,59.9,24.9,30.19,NW,318,7.0,8.0,26,0.00,,,0.00,Wunderground v.1.15,2013-04-19 20:55:00,
2013-04-19 15:57:00,59.8,25.0,30.19,NW,326,8.0,15.0,26,0.00,,,0.00,weatherlink.com 1.10,2013-04-19 20:57:00,
2013-04-19 16:05:00,60.1,26.0,30.18,NW,311,8.0,10.0,27,0.00,,,0.00,Wunderground v.1.15,2013-04-19 21:05:00,
2013-04-19 16:12:00,60.5,25.0,30.18,NNW,336,6.0,18.0,26,0.00,,,0.00,weatherlink.com 1.10,2013-04-19 21:12:00,
2013-04-19 16:20:00,60.7,26.5,30.17,NW,313,9.0,9.0,27,0.00,,,0.00,Wunderground v.1.15,2013-04-19 21:20:00,
2013-04-19 16:25:00,60.8,26.6,30.17,NW,318,7.0,9.0,27,0.00,,,0.00,Wunderground v.1.15,2013-04-19 21:25:00,
2013-04-19 16:27:00,61.1,27.0,30.17,NNW,343,5.0,11.0,27,0.00,,,0.00,weatherlink.com 1.10,2013-04-19 21:27:00,
2013-04-19 16:35:00,61.1,26.8,30.17,SW,221,6.0,7.0,27,0.00,,,0.00,Wunderground v.1.15,2013-04-19 21:35:00,
2013-04-19 16:44:00,61.5,27.0,30.16,North,360,8.0,15.0,27,0.00,,,0.00,weatherlink.com 1.10,2013-04-19 21:44:00,
2013-04-19 16:50:00,61.6,27.3,30.16,NNW,344,8.0,9.0,27,0.00,,,0.00,Wunderground v.1.15,2013-04-19 21:50:00,
2013-04-19 16:55:00,61.6,28.1,30.16,North,10,8.0,9.0,28,0.00,,,0.00,Wunderground v.1.15,2013-04-19 21:55:00,
2013-04-19 16:59:00,61.8,27.0,30.16,NW,325,7.0,15.0,27,0.00,,,0.00,weatherlink.com 1.10,2013-04-19 21:59:00,
2013-04-19 17:05:00,61.7,27.3,30.16,NW,320,6.0,8.0,27,0.00,,,0.00,Wunderground v.1.15,2013-04-19 22:05:00,
2013-04-19 17:14:00,62.6,30.0,30.16,WNW,291,2.0,9.0,29,0.00,,,0.00,weatherlink.com 1.10,2013-04-19 22:14:00,
2013-04-19 17:20:00,62.7,29.1,30.16,SW,227,5.0,9.0,28,0.00,,,0.00,Wunderground v.1.15,2013-04-19 22:20:00,
2013-04-19 17:25:00,62.5,30.6,30.16,West,264,5.0,9.0,30,0.00,,,0.00,Wunderground v.1.15,2013-04-19 22:25:00,
2013-04-19 17:28:00,62.9,30.0,30.16,NW,325,8.0,12.0,29,0.00,,,0.00,weatherlink.com 1.10,2013-04-19 22:28:00,
2013-04-19 17:35:00,62.6,29.9,30.16,NW,313,4.0,4.0,29,0.00,,,0.00,Wunderground v.1.15,2013-04-19 22:35:00,
2013-04-19 17:40:00,62.2,29.5,30.16,NW,309,3.0,9.0,29,0.00,,,0.00,Wunderground v.1.15,2013-04-19 22:40:00,
2013-04-19 17:44:00,61.9,30.0,30.16,WNW,293,3.0,12.0,30,0.00,,,0.00,weatherlink.com 1.10,2013-04-19 22:44:00,
2013-04-19 17:50:00,61.4,29.7,30.16,West,271,5.0,6.0,30,0.00,,,0.00,Wunderground v.1.15,2013-04-19 22:50:00,
2013-04-19 17:55:00,61.1,30.2,30.16,WSW,240,5.0,8.0,31,0.00,,,0.00,Wunderground v.1.15,2013-04-19 22:55:00,
2013-04-19 17:59:00,61.1,31.0,30.16,SW,223,7.0,11.0,32,0.00,,,0.00,weatherlink.com 1.10,2013-04-19 22:59:00,
2013-04-19 18:05:00,61.5,30.6,30.16,WSW,255,3.0,5.0,31,0.00,,,0.00,Wunderground v.1.15,2013-04-19 23:05:00,
2013-04-19 18:10:00,61.5,30.6,30.16,SW,232,2.0,5.0,31,0.00,,,0.00,Wunderground v.1.15,2013-04-19 23:10:00,
2013-04-19 18:14:00,61.4,30.0,30.16,West,279,3.0,6.0,31,0.00,,,0.00,weatherlink.com 1.10,2013-04-19 23:14:00,
2013-04-19 18:20:00,61.4,30.5,30.16,WNW,302,2.0,2.0,31,0.00,,,0.00,Wunderground v.1.15,2013-04-19 23:20:00,
2013-04-19 18:25:00,61.4,30.5,30.16,West,265,2.0,2.0,31,0.00,,,0.00,Wunderground v.1.15,2013-04-19 23:25:00,
2013-04-19 18:29:00,61.4,30.0,30.16,SSW,200,2.0,9.0,31,0.00,,,0.00,weatherlink.com 1.10,2013-04-19 23:29:00,
2013-04-19 18:35:00,61.7,30.7,30.16,WNW,291,3.0,5.0,31,0.00,,,0.00,Wunderground v.1.15,2013-04-19 23:35:00,
2013-04-19 18:40:00,61.7,30.7,30.16,NW,311,3.0,3.0,31,0.00,,,0.00,Wunderground v.1.15,2013-04-19 23:40:00,
2013-04-19 18:44:00,61.8,31.0,30.16,WNW,289,3.0,8.0,31,0.00,,,0.00,weatherlink.com 1.10,2013-04-19 23:44:00,
2013-04-19 18:45:00,61.8,30.8,30.16,WNW,302,3.0,3.0,31,0.00,,,0.00,Wunderground v.1.15,2013-04-19 23:45:00,
2013-04-19 18:50:00,62.0,31.0,30.16,WNW,289,2.0,2.0,31,0.00,,,0.00,Wunderground v.1.15,2013-04-19 23:50:00,
2013-04-19 18:59:00,61.2,30.0,30.16,WSW,244,4.0,8.0,31,0.00,,,0.00,weatherlink.com 1.10,2013-04-19 23:59:00,
2013-04-19 19:05:00,60.9,30.8,30.16,WSW,254,2.0,6.0,32,0.00,,,0.00,Wunderground v.1.15,2013-04-20 00:05:00,
2013-04-19 19:10:00,60.8,30.7,30.16,SW,235,2.0,3.0,32,0.00,,,0.00,Wunderground v.1.15,2013-04-20 00:10:00,
2013-04-19 19:14:00,60.7,30.0,30.16,WSW,254,0.0,7.0,32,0.00,,,0.00,weatherlink.com 1.10,2013-04-20 00:14:00,
2013-04-19 19:20:00,60.5,30.5,30.15,SW,234,3.0,9.0,32,0.00,,,0.00,Wunderground v.1.15,2013-04-20 00:20:00,
2013-04-19 19:29:00,60.2,30.0,30.15,SSW,213,2.0,7.0,32,0.00,,,0.00,weatherlink.com 1.10,2013-04-20 00:29:00,
2013-04-19 19:30:00,60.2,30.2,30.15,SSW,213,2.0,2.0,32,0.00,,,0.00,Wunderground v.1.15,2013-04-20 00:30:00,
2013-04-19 19:35:00,60.0,30.8,30.15,WSW,239,2.0,2.0,33,0.00,,,0.00,Wunderground v.1.15,2013-04-20 00:35:00,
2013-04-19 19:40:00,59.9,30.7,30.15,WSW,242,2.0,3.0,33,0.00,,,0.00,Wunderground v.1.15,2013-04-20 00:40:00,
2013-04-19 19:44:00,59.8,30.0,30.15,WSW,242,0.0,6.0,33,0.00,,,0.00,weatherlink.com 1.10,2013-04-20 00:44:00,
2013-04-19 19:50:00,59.7,30.5,30.15,WSW,242,0.0,2.0,33,0.00,,,0.00,Wunderground v.1.15,2013-04-20 00:50:00,
2013-04-19 19:55:00,59.6,31.2,30.15,WSW,242,1.0,3.0,34,0.00,,,0.00,Wunderground v.1.15,2013-04-20 00:55:00,
2013-04-19 19:59:00,59.3,31.0,30.15,WSW,242,1.0,4.0,35,0.00,,,0.00,weatherlink.com 1.10,2013-04-20 00:59:00,
2013-04-19 20:05:00,58.9,32.0,30.15,WSW,242,2.0,2.0,36,0.00,,,0.00,Wunderground v.1.15,2013-04-20 01:05:00,
2013-04-19 20:10:00,58.6,31.7,30.15,WSW,242,2.0,2.0,36,0.00,,,0.00,Wunderground v.1.15,2013-04-20 01:10:00,
2013-04-19 20:14:00,58.4,32.0,30.15,WSW,242,2.0,4.0,37,0.00,,,0.00,weatherlink.com 1.10,2013-04-20 01:14:00,
2013-04-19 20:20:00,58.1,32.6,30.15,WSW,242,2.0,2.0,38,0.00,,,0.00,Wunderground v.1.15,2013-04-20 01:20:00,
2013-04-19 20:25:00,57.8,33.0,30.15,WSW,242,2.0,2.0,39,0.00,,,0.00,Wunderground v.1.15,2013-04-20 01:25:00,
2013-04-19 20:29:00,57.6,32.0,30.15,WSW,242,1.0,3.0,38,0.00,,,0.00,weatherlink.com 1.10,2013-04-20 01:29:00,
2013-04-19 20:35:00,57.3,33.2,30.15,WSW,242,1.0,2.0,40,0.00,,,0.00,Wunderground v.1.15,2013-04-20 01:35:00,
2013-04-19 20:40:00,57.1,34.2,30.15,WSW,242,1.0,3.0,42,0.00,,,0.00,Wunderground v.1.15,2013-04-20 01:40:00,
2013-04-19 20:44:00,56.6,34.0,30.15,WSW,241,3.0,4.0,43,0.00,,,0.00,weatherlink.com 1.10,2013-04-20 01:44:00,
2013-04-19 20:45:00,56.6,34.3,30.16,WSW,241,2.0,3.0,43,0.00,,,0.00,Wunderground v.1.15,2013-04-20 01:45:00,
2013-04-19 20:50:00,56.2,34.0,30.16,WSW,241,2.0,2.0,43,0.00,,,0.00,Wunderground v.1.15,2013-04-20 01:50:00,
2013-04-19 20:55:00,56.0,32.6,30.16,WSW,241,2.0,3.0,41,0.00,,,0.00,Wunderground v.1.15,2013-04-20 01:55:00,
2013-04-19 20:59:00,55.9,32.0,30.16,WSW,239,3.0,4.0,41,0.00,,,0.00,weatherlink.com 1.10,2013-04-20 01:59:00,
2013-04-19 21:05:00,55.9,31.9,30.16,SSW,208,3.0,6.0,40,0.00,,,0.00,Wunderground v.1.15,2013-04-20 02:05:00,
2013-04-19 21:10:00,55.8,33.0,30.16,SSW,199,4.0,4.0,42,0.00,,,0.00,Wunderground v.1.15,2013-04-20 02:10:00,
2013-04-19 21:14:00,55.5,33.0,30.16,SSW,197,3.0,5.0,42,0.00,,,0.00,weatherlink.com 1.10,2013-04-20 02:14:00,
2013-04-19 21:20:00,55.4,33.3,30.16,SSW,194,3.0,3.0,43,0.00,,,0.00,Wunderground v.1.15,2013-04-20 02:20:00,
2013-04-19 21:25:00,55.1,32.4,30.16,SSW,205,4.0,4.0,42,0.00,,,0.00,Wunderground v.1.15,2013-04-20 02:25:00,
2013-04-19 21:30:00,55.1,33.0,30.16,SSW,205,4.0,4.0,43,0.00,,,0.00,Wunderground v.1.15,2013-04-20 02:30:00,
2013-04-19 21:31:00,55.1,33.0,30.16,South,186,4.0,6.0,43,0.00,,,0.00,weatherlink.com 1.10,2013-04-20 02:31:00,
2013-04-19 21:40:00,54.9,32.8,30.17,SSW,194,3.0,4.0,43,0.00,,,0.00,Wunderground v.1.15,2013-04-20 02:40:00,
2013-04-19 21:45:00,54.6,33.1,30.17,South,190,3.0,4.0,44,0.00,,,0.00,Wunderground v.1.15,2013-04-20 02:45:00,
2013-04-19 21:46:00,54.5,33.0,30.17,South,189,4.0,5.0,44,0.00,,,0.00,weatherlink.com 1.10,2013-04-20 02:46:00,
2013-04-19 21:50:00,54.2,32.7,30.17,South,186,3.0,4.0,44,0.00,,,0.00,Wunderground v.1.15,2013-04-20 02:50:00,
2013-04-19 21:55:00,53.7,32.8,30.17,South,184,4.0,4.0,45,0.00,,,0.00,Wunderground v.1.15,2013-04-20 02:55:00,
2013-04-19 22:00:00,53.3,33.0,30.17,SSW,195,4.0,4.0,46,0.00,,,0.00,Wunderground v.1.15,2013-04-20 03:00:00,
2013-04-19 22:01:00,53.2,33.0,30.17,SSW,195,3.0,5.0,46,0.00,,,0.00,weatherlink.com 1.10,2013-04-20 03:01:00,
2013-04-19 22:10:00,53.0,33.3,30.17,South,187,2.0,3.0,47,0.00,,,0.00,Wunderground v.1.15,2013-04-20 03:10:00,
2013-04-19 22:15:00,52.9,33.2,30.17,South,188,3.0,3.0,47,0.00,,,0.00,Wunderground v.1.15,2013-04-20 03:15:00,
2013-04-19 22:16:00,52.9,33.0,30.17,SSW,206,3.0,6.0,47,0.00,,,0.00,weatherlink.com 1.10,2013-04-20 03:16:00,
2013-04-19 22:25:00,52.9,32.7,30.17,South,190,2.0,3.0,46,0.00,,,0.00,Wunderground v.1.15,2013-04-20 03:25:00,
2013-04-19 22:30:00,52.9,32.7,30.17,South,179,3.0,3.0,46,0.00,,,0.00,Wunderground v.1.15,2013-04-20 03:30:00,
2013-04-19 22:31:00,52.9,32.0,30.17,South,175,4.0,7.0,46,0.00,,,0.00,weatherlink.com 1.10,2013-04-20 03:31:00,
2013-04-19 22:40:00,53.0,32.8,30.17,South,186,4.0,4.0,46,0.00,,,0.00,Wunderground v.1.15,2013-04-20 03:40:00,
2013-04-19 22:46:00,52.9,32.0,30.17,South,182,5.0,6.0,46,0.00,,,0.00,weatherlink.com 1.10,2013-04-20 03:46:00,
2013-04-19 22:50:00,52.8,32.6,30.17,South,182,3.0,3.0,46,0.00,,,0.00,Wunderground v.1.15,2013-04-20 03:50:00,
2013-04-19 22:55:00,52.4,32.7,30.17,South,175,3.0,4.0,47,0.00,,,0.00,Wunderground v.1.15,2013-04-20 03:55:00,
2013-04-19 23:01:00,52.0,33.0,30.17,South,182,6.0,7.0,48,0.00,,,0.00,weatherlink.com 1.10,2013-04-20 04:01:00,
2013-04-19 23:05:00,51.9,32.8,30.17,South,187,4.0,5.0,48,0.00,,,0.00,Wunderground v.1.15,2013-04-20 04:05:00,
2013-04-19 23:10:00,51.8,32.7,30.17,South,180,4.0,4.0,48,0.00,,,0.00,Wunderground v.1.15,2013-04-20 04:10:00,
2013-04-19 23:15:00,51.6,33.0,30.17,South,182,4.0,5.0,49,0.00,,,0.00,Wunderground v.1.15,2013-04-20 04:15:00,
2013-04-19 23:16:00,51.6,33.0,30.16,South,178,6.0,7.0,49,0.00,,,0.00,weatherlink.com 1.10,2013-04-20 04:16:00,
2013-04-19 23:20:00,51.5,33.0,30.17,SSW,202,4.0,4.0,49,0.00,,,0.00,Wunderground v.1.15,2013-04-20 04:20:00,
2013-04-19 23:25:00,51.4,32.3,30.17,SSW,192,5.0,5.0,48,0.00,,,0.00,Wunderground v.1.15,2013-04-20 04:25:00,
2013-04-19 23:31:00,51.5,32.0,30.16,South,182,4.0,7.0,48,0.00,,,0.00,weatherlink.com 1.10,2013-04-20 04:31:00,
2013-04-19 23:40:00,51.7,32.1,30.16,South,188,5.0,5.0,47,0.00,,,0.00,Wunderground v.1.15,2013-04-20 04:40:00,
2013-04-19 23:45:00,51.7,32.6,30.17,South,177,6.0,6.0,48,0.00,,,0.00,Wunderground v.1.15,2013-04-20 04:45:00,
2013-04-19 23:46:00,51.7,32.0,30.17,SSW,197,6.0,8.0,47,0.00,,,0.00,weatherlink.com 1.10,2013-04-20 04:46:00,
2013-04-19 23:50:00,51.6,32.0,30.17,South,187,6.0,6.0,47,0.00,,,0.00,Wunderground v.1.15,2013-04-20 04:50:00,